Location: Azul
(36.7830°S, 59.8500°W)
Time: 20:11:14
(UTC-03:00)

ISS - Pass Details

Date: 13 July 2019
Orbit: 409 x 418 km, 51.6° (Epoch: 23 July)

Event Time Altitude Azimuth Distance (km) Brightness Sun altitude
Rises 18:26:25 0° 231° (SW) 2,394 0.5 -5.6°
Reaches altitude 10° 18:28:32 10° 232° (SW) 1,524 -0.5 -5.9°
Maximum altitude 18:31:58 75° 317° (NW) 445 -3.5 -6.6°
Drops below altitude 10° 18:35:20 10° 43° (NE) 1,506 -1.1 -7.2°
Sets 18:37:26 0° 44° (NE) 2,363 -0.2 -7.6°
